Location: Baia Mare
(47.6567°N, 23.5850°E)
Time: 14:17:38
(UTC+03:00)

ISS - Pass Details

Date: 30 July 2019
Orbit: 409 x 418 km, 51.6° (Epoch: 21 July)

Event Time Altitude Azimuth Distance (km) Brightness Sun altitude
Rises 23:52:40 0° 288° (WNW) 2,353 0.7 -20.3°
Reaches altitude 10° 23:55:03 10° 273° (W) 1,485 -0.6 -20.4°
Enters shadow 23:56:36 19° 249° (WSW) 1,062 -1.7 -20.5°
